Simultaneous Nadir Overpasses (SNOs) Predictions

Prediction of SNOs between METOP-C and LANDSAT-8 Satellite Orbit:

Table of predicted SNOs for the next 14.0 days since TLE Epoch: 5/21/2021
Index Date (METOP-C) Time (METOP-C) Lat,Lon (METOP-C) SZA (METOP-C ) Date (LANDSAT-8) Time (LANDSAT-8) Lat,Lon (LANDSAT-8) SZA (LANDSAT-8 ) Distance(km) Time Diff (sec)
1 05/24/2021 16:03:24 -81.14, 159.29 117.50 05/24/2021 16:04:02 -81.14, 159.25 117.49 0.69 38
2 05/24/2021 16:54:03 81.16, -32.80 62.58 05/24/2021 16:53:27 81.17, -32.65 62.58 2.70 36
3 05/27/2021 11:37:46 -81.14,-134.33 117.99 05/27/2021 11:38:19 -81.14,-134.38 117.99 0.87 33
4 05/27/2021 12:28:24 81.17, 33.88 62.12 05/27/2021 12:27:44 81.16, 33.70 62.08 3.22 40
5 05/30/2021 07:12:07 -81.15, -67.59 118.39 05/30/2021 07:12:35 -81.15, -67.67 118.39 1.32 28
6 05/30/2021 08:02:45 81.18, 100.56 61.71 05/30/2021 08:02:00 81.18, 100.39 61.67 2.86 45
7 06/02/2021 02:46:28 -81.15, -1.23 118.80 06/02/2021 02:46:51 -81.15, -1.35 118.80 2.03 23
8 06/02/2021 03:37:06 81.17, 166.84 61.30 06/02/2021 03:36:16 81.17, 166.68 61.26 2.75 50



Historial Predications of SNOs between METOP-C and LANDSAT-8
